Location: Bärenthal
(48.0739°N, 8.9280°E)
Time: 04:20:02
(UTC+00:00)

Daily predictions for brighter satellites

Satellite Brightness Start Highest point End
(mag) Time Altitude Azimuth Time Altitude Azimuth Time Altitude Azimuth
ATLAS 3B R/B 4.4 01:40:33 32° NE 01:40:33 32° NE 01:45:50 10° E
ATLAS 2AS CENTAUR R/B 4.2 01:59:55 31° E 01:59:55 31° E 02:04:13 10° NE
Cosmos 2263 Rocket 4.3 02:18:15 23° ENE 02:18:15 23° ENE 02:21:07 10° ESE
Cosmos 2219 4.3 02:53:44 41° E 02:53:44 41° E 02:57:51 10° SE
H-2A R/B 3.2 02:58:40 10° NNE 03:02:39 38° ENE 03:02:39 38° ENE
BREEZE-M DEB (TANK) 4.4 03:15:12 42° ENE 03:15:12 42° ENE 03:20:20 10° E
NOSS 3-1 (A) 3.9 03:23:44 67° WSW 03:23:57 68° SW 03:32:45 10° SSE
Cosmos 1980 Rocket 2.6 03:23:21 53° SE 03:24:08 58° ESE 03:29:38 10° NE
USA 281 3.5 03:20:42 10° SE 03:27:09 63° ENE 03:32:52 14° NNW
IRS-1D 3.8 03:24:23 10° NNE 03:29:19 63° ESE 03:29:32 62° ESE
ATLAS 3B R/B 2.9 03:27:51 46° NW 03:30:34 88° NE 03:38:18 10° SE
USA 267 4.0 03:30:50 10° ENE 03:36:54 43° N 03:38:49 35° NNW
Meteor 2-5 Rocket 4.3 03:31:21 10° S 03:36:59 58° E 03:42:31 10° NNE
Cosmos 371 Rocket 4.1 03:37:59 34° N 03:39:42 49° ENE 03:44:22 10° SE
Cosmos 1697 Rocket 3.1 03:42:45 47° NNW 03:42:45 47° NNW 03:47:12 10° NNE
ATLAS CENTAUR R/B 3.0 03:43:56 26° NE 03:43:56 26° NE 03:45:44 10° NE
Lacrosse 4 Rocket 2.4 03:49:00 37° SSE 03:49:00 37° SSE 03:51:33 10° SSE
COSMO-SKYMED 1 4.3 03:43:50 10° SE 03:47:40 32° ENE 03:51:32 10° N
ATLAS 2AS CENTAUR R/B 2.8 03:47:22 55° W 03:48:30 62° NW 03:55:27 10° NE
Cosmos 1939 Rocket 3.5 03:45:34 10° NNE 03:49:11 48° E 03:49:11 48° E
Cosmos 1452 Rocket 4.1 03:52:05 43° NNW 03:52:05 43° NNW 03:56:00 10° NNE
Cosmos 2315 Rocket 4.1 03:45:54 10° N 03:52:19 77° E 03:58:39 10° SSE
Cosmos 1818 3.5 03:51:21 54° SSW 03:52:37 82° SE 03:58:08 10° NE
USA 59 Rocket 0.9 03:53:36 35° NNE 03:54:16 38° NE 03:58:45 10° ESE
Cosmos 1302 Rocket 3.9 03:53:24 40° SSW 03:55:18 82° ESE 04:00:31 10° NNE
Cosmos 2242 Rocket 3.6 03:54:07 45° S 03:55:28 78° E 03:59:56 10° NNE
Cosmos 883 Rocket 4.4 03:51:40 10° N 03:58:03 89° ENE 04:04:22 10° S
CZ-2C R/B 3.7 03:54:24 10° N 03:56:41 26° NNW 03:56:41 26° NNW
Cosmos 2263 Rocket 2.1 04:00:01 58° WNW 04:00:44 64° WSW 04:06:17 10° SSE
Cosmos 2082 3.6 04:03:04 42° NW 04:05:02 73° WSW 04:10:40 10° SSE
Cosmos 2227 Rocket 4.3 04:13:54 11° SSW 04:13:54 11° SSW 04:14:05 10° SSW
Cosmos 2266 Rocket 4.0 04:04:12 10° SSW 04:10:35 65° WNW 04:16:57 10° N
BREEZE-M DEB (TANK) 2.1 04:14:05 69° N 04:14:06 69° N 04:19:23 10° E
Cosmos 2151 Rocket 4.2 04:12:05 10° N 04:16:29 57° ENE 04:20:52 10° SSE
Cosmos 1437 Rocket 3.7 04:15:53 10° S 04:19:18 45° E 04:22:47 10° NNE
NOSS 2-1 (E) 3.8 04:20:27 34° NNW 04:21:57 61° NE 04:26:53 10° SE
CZ-4B R/B 4.4 04:17:59 10° S 04:22:17 73° WSW 04:25:34 18° NNW
SL-16 R/B 3.5 04:18:16 10° S 04:23:32 42° ESE 04:28:50 10° NE
SL-08 RB Rocket 3.9 04:19:28 10° NNE 04:24:05 73° ESE 04:28:41 10° S
Okean 1 Rocket 4.3 04:20:44 10° N 04:25:01 43° ENE 04:29:16 10° SSE
Gbstr 26 Del rocket 4.0 04:22:25 23° SSW 04:25:04 52° SE 04:30:21 10° ENE
USA 229 DEB 3.9 04:21:54 21° NW 04:27:22 78° SW 04:35:29 10° SSE
USA 229 3.9 04:22:01 20° NW 04:27:30 79° SW 04:35:36 10° SSE
Cosmos 1484 Rocket 2.3 04:24:23 10° N 04:27:54 77° WNW 04:30:41 15° SSW
Cosmos 304 Rocket 3.6 04:26:56 23° NNW 04:29:51 71° WSW 04:34:35 10° SSE
Cosmos 1655 Rocket 3.9 04:23:43 10° SSW 04:30:05 71° W 04:36:27 10° N
IRAS Rocket 4.4 04:28:22 10° N 04:33:40 50° WNW 04:38:58 10° SW
Cosmos 2344 4.4 04:27:36 10° SSW 04:34:59 48° ESE 04:41:54 10° NE
SKYMED 2 3.5 04:31:16 10° SSE 04:35:36 88° WSW 04:39:59 10° NNW
S3M 4.4 04:30:00 10° NNW 04:35:42 38° W 04:41:19 10° SSW
Cosmos 2219 3.9 04:35:43 30° W 04:36:16 31° WSW 04:41:07 10° SSW
BREEZE-M DEB (TANK) 3.3 04:39:15 19° SSW 04:40:20 27° SSE 04:43:07 10° E
H-2A R/B 2.7 04:38:19 10° N 04:42:36 29° WNW 04:43:09 28° WNW
USA 215 4.3 04:37:51 10° ENE 04:44:04 44° SE 04:50:15 10° SSW
BREEZE-M DEB (TANK) 3.3 04:45:30 30° WSW 04:46:31 42° S 04:53:36 10° ESE
Cosmos 1328 3.4 04:43:07 10° SSW 04:46:49 75° W 04:50:33 10° N
Cosmos 2333 Rocket 4.0 04:44:17 10° SSE 04:49:21 34° ESE 04:54:24 10° NE
Meteor 1-24 Rocket 4.1 04:47:02 10° SW 04:52:03 36° WNW 04:56:59 10° N
SL-8 R/B 3.8 04:49:43 21° WSW 04:52:50 75° SSE 04:57:36 10° E
ARIANE 5 R/B 3.3 04:48:34 10° NNE 04:53:34 56° ESE 04:58:34 10° S
ARGOS 3.3 04:48:38 10° N 04:53:54 52° WNW 04:59:08 10° SW
Cosmos 2278 3.8 04:48:39 10° SSW 04:54:17 82° ESE 04:59:58 10° NNE
Cosmos 2221 Rocket 3.5 04:50:52 10° S 04:55:16 89° WNW 04:59:44 10° N
Thor Agena Rocket 3.9 04:50:32 10° N 04:55:24 41° WNW 05:00:12 10° SW
Cosmos 1844 Rocket 2.7 04:54:48 10° NNW 05:00:30 85° ENE 05:06:07 10° SSE
NOSS 2-1 (C) 3.5 04:58:22 21° NW 05:00:50 63° SW 05:05:55 10° SSE
Cosmos 2322 Rocket 3.1 04:57:38 10° S 05:03:07 53° ESE 05:08:35 10° NE
Sich 1 Rocket 3.7 05:01:13 10° NNW 05:05:36 55° W 05:10:00 10° S
H-2A R/B 1.6 05:04:17 10° NNE 05:06:45 78° E 05:09:12 10° S
Cosmos 1980 Rocket 3.0 05:05:10 17° W 05:08:29 29° NW 05:13:19 10° NNE
Meteor 1-21 Rocket 4.4 05:04:09 10° S 05:09:45 79° E 05:15:19 10° NNE
YAOGAN 11 4.1 05:05:34 10° S 05:09:51 59° WSW 05:14:14 10° NNW
IRS-1C 4.3 05:06:16 10° NNE 05:11:38 81° ESE 05:16:57 10° SSW
USA 281 4.0 05:06:24 10° SSW 05:12:02 30° WSW 05:17:43 10° NW
Cosmos 2369 4.3 05:07:18 10° WSW 05:12:28 35° NW 05:17:40 10° NNE
Cosmos 1777 Rocket 4.1 05:09:20 10° NNW 05:14:40 83° ENE 05:19:55 10° SSE
Cosmos 1378 Rocket 4.0 05:11:29 10° SW 05:15:36 38° WNW 05:19:44 10° N
Cosmos 1745 Rocket 4.5 05:10:14 10° S 05:16:32 69° E 05:22:50 10° NNE
FengYun 1-2 T 4.4 05:11:27 10° N 05:16:52 50° WNW 05:22:17 10° SW
Cosmos 1674 Rocket 3.8 05:13:27 10° SSW 05:17:34 44° WNW 05:21:44 10° N
Cosmos 1025 Rocket 2.9 05:13:47 10° S 05:18:01 88° WNW 05:22:18 10° N
USA 267 3.4 05:12:57 10° ESE 05:19:27 73° NNE 05:25:58 10° NW
ATLAS CENTAUR R/B 2.9 05:18:24 14° NW 05:19:38 16° NNW 05:22:06 10° N
Cosmos 371 Rocket 4.4 05:16:34 13° NW 05:19:39 23° W 05:23:24 10° SSW
ATLAS 3B R/B 3.9 05:15:09 13° WNW 05:20:30 26° WSW 05:26:30 10° SSW
Okean 2 Rocket 3.6 05:17:03 10° NNW 05:21:10 37° W 05:25:15 10° SSW
ARIANE 6 FM1 Upper Stage 2.6 05:18:22 10° SW 05:22:34 75° NW 05:26:52 10° NE
Cosmos 1939 Rocket 4.3 05:20:53 10° NNW 05:23:08 16° WNW 05:24:25 13° W
COSMO-SKYMED 1 3.4 05:20:02 10° SSW 05:23:50 29° W 05:27:40 10° NW
Cosmos 1503 Rocket 4.0 05:18:54 10° NNW 05:24:13 77° WSW 05:29:27 10° SSE
Lacrosse 4 Rocket 3.4 05:24:51 10° WSW 05:24:51 10° WSW 05:25:15 10° WSW
Cosmos 1486 Rocket 4.2 05:19:53 10° NNW 05:24:54 50° WSW 05:29:55 10° S
Cosmos 332 Rocket 3.9 05:20:46 10° NNW 05:25:33 56° WSW 05:30:17 10° S
NOAA 12 4.2 05:20:36 10° N 05:25:46 53° WNW 05:30:55 10° SW
Cosmos 1697 Rocket 4.4 05:24:29 12° WNW 05:26:55 15° NW 05:29:59 10° N
SL-08 R/B 3.6 05:22:11 10° SSE 05:26:56 74° ENE 05:31:39 10° N
Cosmos 1844 3.7 05:23:32 10° NNW 05:29:10 68° WSW 05:34:50 10° SSE
Helios 1A 3.9 05:28:26 10° SE 05:32:21 49° ENE 05:36:17 10° N
Cosmos 2098 Rocket 3.1 05:29:09 10° NNW 05:32:40 35° W 05:35:40 10° SSW
NOSS 2-1 (D) 4.4 05:29:47 11° WNW 05:33:09 34° SW 05:37:56 10° S
Cosmos 2219 Rocket 3.8 05:28:55 10° S 05:34:06 41° ESE 05:39:20 10° NE
In-Cosmos 22 Rocket 4.3 05:28:26 10° SSW 05:34:15 84° WNW 05:40:01 10° N
ATLAS 2AS CENTAUR R/B 3.8 05:34:55 10° WNW 05:40:47 26° NNW 05:46:30 10° NE
USA 59 Rocket 1.2 05:40:03 10° WNW 05:43:38 30° SW 05:48:20 10° S
NOSS 3 (A) 4.5 05:42:42 11° W 05:43:50 19° NW 05:45:05 10° N
Cosmos 1455 Rocket 3.0 05:39:44 10° NNW 05:44:04 68° W 05:48:22 10° S
OPS 6432 4.5 05:41:11 10° NW 05:44:21 67° NE 05:47:30 10° SE
Nadezhda 1 Rocket 4.0 05:38:47 10° NNW 05:44:51 62° W 05:50:49 10° S
